    Orbital elements:
      46P/Wirtanen
    Epoch 2002 Sept. 3.0 TT = JDT 2452520.5
    T 2002 Aug. 26.74628 TT                                 MPC
    q   1.0587602            (2000.0)            P               Q
    n   0.18107117     Peri.  356.39842     +0.19682227     -0.95950035
    a   3.0943529      Node    82.17432     +0.90454239     +0.09840414
    e   0.6578412      Incl.   11.73813     +0.37823810     +0.26396157
    P   5.44
    From 252 observations 1995 June 26-2002 June 23, mean residual 0".61.  Non-
       gravitational parameters A1 = +0.23 +/- 0.03, A2 = -0.1892 +/- 0.0097.
    Residuals in seconds of arc
    950626 809  1.6-  1.1-    961002 809  0.1+  0.0     970423 897  1.1+  0.7-
    960320 809  0.7-  0.3-    961002 809  0.0   0.1-    970423 897  0.5+  0.5-
    960425 809  0.9+  0.3+    961003 809  0.2+  0.2-    970423 118  0.3+  0.4-
    960425 809  1.6+  1.0+ Y  961003 809  0.3+  0.0     970423 118  0.2-  0.5-
    960425 809  0.6+  1.4- Y  961003 809  0.2+  0.0     970423 118  0.0   0.4-
    960425 809  0.3-  0.1+    961004 809  0.3+  0.0     970424 118  0.6-  0.1-
    960425 809  0.0   0.2+    961004 360  0.2+  0.1+    970424 118  1.5-  0.3+
    960425 809  0.6-  0.4+    961004 360  0.2-  0.0     970424 118  0.2+  0.2-
    960511 809  0.2+  0.1+    961004 360  0.3-  0.8+    970424 118  0.6-  0.4+
    960511 809  0.2-  0.0     961011 711  0.1+  0.8+    970426 861  0.1-  1.2-
    960511 809  0.0   0.1-    961011 711  1.0+  0.7+    970427 861  0.8+  0.5-
    960511 809  0.3-  0.4-    961012 711  0.1-  0.3+    970427 861  1.1-  1.1+
    960512 809  0.3-  0.0     961012 711  0.8+  1.0+    970429 950 (4.4+  0.4+)
    960512 809  0.0   0.1-    961016 360  0.9+  0.3-    970429 950 (4.6+  0.6+)
    960512 809  0.0   0.0     961016 360  0.1-  0.4-    970429 950 (4.4+  0.6+)
    960512 809  0.0   0.1-    961016 360  0.7+  0.4-    970429 950 (4.5+  0.5+)
    960513 809  0.4+  0.1+    961101 809  0.5+  0.1+    970430 967 (5.9+  0.3-)
    960513 809  0.2+  0.1-    961102 809  0.3+  0.1+    970430 967  1.1-  0.1+
    960513 809  0.2+  0.2-    961102 809  0.2+  0.6+    970501 967  1.8+  0.2-
    960513 809  0.2+  0.3-    961103 809  0.5+  0.1+    970501 967  0.5-  0.1+
    960613 568  0.3-  0.7+    961104 809  0.1+  0.3-    970501 967 (3.7+  0.2+)
    960613 568  0.2-  1.0+    961104 809  0.1+  0.3-    970501 967  0.2-  0.5-
    960613 568  0.2-  0.7+    961105 809  0.2+  0.7-    970503 118  0.1+  0.0
    960613 568  0.0   0.5+    961105 809  0.2+  0.2-    970503 118  0.8+  0.1-
    960614 568  0.5-  0.8+    961118 711 (2.1+  0.6+)   970504 360  0.7-  0.2+
    960614 568  0.1-  0.7+    961118 711  1.8+  0.9+    970504 360  0.4-  0.1-
    960615 675  0.4-  0.1+    961203 360  1.9+  0.2+    970504 118  0.1-  0.2+
    960615 675  0.3-  0.2+    961203 360 (2.3+  0.6+)   970504 118  0.2+  0.1-
    960615 675  0.4-  0.1+    961205 711 (3.1+  1.3+)   970509 950 (4.2+  0.1+)
    960615 675  0.4-  0.1+    961205 711 (3.0+  0.7+)   970509 950 (4.2+  0.0 )
    960615 675  0.3-  0.1-    961206 809  0.6+  0.4-    970509 950 (4.0+  0.0 )
    960616 675  0.4-  0.2+    961206 809  1.4-  1.2-    970509 950 (4.2+  0.1+)
    960616 675  0.2-  0.1+    961206 897 (2.1+  0.5-)   970509 950 (3.6+  0.1+)
    960616 675  0.3-  0.1+    961206 897 (2.9+  1.2-)   970509 950 (4.1+  0.0 )
    960617 675  0.6-  0.1+    961206 897  1.9+  1.9-    970509 950 (3.9+  0.1+)
    960617 675  0.6-  0.1+    961207 809  0.3+  0.4-    970509 950 (3.8+  0.2+)
    960617 675  0.5-  0.1-    961208 809  0.1-  0.3-    970509 950 (3.9+  0.0 )
    960617 675  0.5-  0.0     961208 809  0.9+  0.3-    970509 950 (3.7+  0.1+)
    960618 809  0.0   0.5-    961209 809  0.2+  0.3-    970509 950 (4.1+  0.0 )
    960618 809  0.0   0.2+    961210 809  0.6+  0.1-    970509 950 (3.6+  0.1+)
    960618 809  0.9-  0.4+    961211 809  0.0   0.5-    970510 118  0.8+  0.2+
    960619 809  0.5+  0.8-    961227 867  1.3+  0.6+    970510 118  0.7+  0.1+
    960619 809  0.7+  0.7-    961227 867  1.3+  1.3+    970510 950 (4.3+  0.0 )
    960619 809  0.0   0.7-    961228 360  1.0-  1.3+    970510 950 (4.1+  0.1-)
    960709 809  0.2+  0.0     961228 360  1.1-  1.1+    970510 950 (4.2+  0.1+)
    960709 809  0.4+  0.1-    961230 897 (3.2+  1.7+)   970510 950 (3.8+  0.1-)
    960710 809  0.3-  0.6+    961230 897 (0.7+  2.9+)   970510 950 (4.2+  0.1-)
    960710 809  0.3-  0.6+    970103 897  1.1+  0.1+    970511 950 (3.9+  0.6-)
    960711 809  0.4+  0.1+    970103 897  1.2+  1.0+    970511 950 (4.5+  0.5-)
    960711 809  0.3-  0.0     970109 954  0.5+  0.3+    970511 950 (3.7+  0.0 )
    960712 809  0.3+  0.1-    970109 954  0.2+  0.2+    970511 950 (4.5+  0.0 )
    960712 809  0.3+  0.0     970109 954  0.7+  0.5+    970511 950 (4.0+  0.2-)
    960810 421 (2.1-  1.7-)   970110 954  0.7-  0.1+    970512 950 (4.5+  0.2-)
    960810 360  0.3-  0.3-    970110 954  0.4+  0.9+    970512 950 (3.9+  0.0 )
    960810 360  0.9-  0.5-    970110 954  0.5-  0.6+    970512 950 (4.1+  0.2+)
    960810 421  1.7-  1.8-    970110 954 (2.1-  0.2-)   970512 950 (4.6+  0.5+)
    960810 360  0.9-  0.6+    970112 360  0.6+  0.3+    970514 711  0.4-  0.1+
    960810 421  1.0-  1.3+    970112 360  0.3+  0.2+    970514 711  0.5-  0.0
    960817 568  0.6-  0.2-    970114 627  0.7+  0.4-    970514 118  0.5-  0.1+
    960817 568  0.7-  0.3-    970114 627  0.7+  0.3+    970514 118  0.7-  0.0
    960817 568  0.8-  0.5-    970114 627  0.2+  0.7+    970517 118  0.1+  0.4-
    960817 568  0.7-  0.4-    970126 897  1.3+  0.6+    970517 118  0.6+  0.3+
    960817 568  0.6-  0.6-    970126 897  0.6+  0.4-    970517 118  0.2+  0.3-
    960817 568  0.7-  0.5-    970126 897  0.1+  0.6-    970518 897  1.5+  0.7+
    960818 809  1.2+  0.4+    970208 967 (3.6+  3.9+)   970518 897  0.4-  0.3-
    960818 809  0.4-  0.1-    970209 897  0.2-  0.3-    970519 118  0.0   0.3+
    960819 809  0.8-  0.5-    970209 360  1.4-  0.4-    970519 118  1.1+  0.1-
    960819 809  0.0   0.1+    970209 360  1.4-  0.5-    970519 118  0.3+  0.3+
    960819 360  0.4-  0.4-    970211 711  0.1+  0.2-    970525 360  0.2-  0.0
    960819 360  1.2-  0.2-    970211 711  0.1+  0.4-    970525 360  0.1-  0.1+
    960819 360  0.2-  0.9-    970212 950 (2.3-  0.1-)   970525 118  0.9+  0.6+
    960820 809 (2.2-  0.1-)   970212 950  1.8-  0.1-    970525 118  1.3+  0.1+
    960820 809  0.1-  0.2+    970212 950  0.3-  0.3-    970528 897  1.9+  1.0-
    960821 809  0.5+  0.7+    970212 950  0.2+  0.2-    970609 118  0.8+  0.2-
    960821 809  0.1+  0.1+    970212 950  0.1-  0.3-    970609 118  1.4+  0.6-
    960822 809  0.1+  0.2-    970212 950  0.6-  0.3-    970627 118 (3.3+  1.2-)
    960822 809  0.2-  0.1-    970212 950  1.3-  1.3-    970627 118 (1.8+  6.2-)
    960823 809  0.3+  0.1+    970213 711  0.2+  0.6-    971230 568  0.2-  0.5+
    960823 809  0.0   0.4+    970213 711  0.6+  0.5-    990517 309  0.3-  0.2-
    960910 809  0.1+  0.0     970214 950  0.8-  0.5-    990517 309  0.8-  0.0
    960910 809  0.7+  0.3-    970214 950  1.2-  0.3-    990517 309  0.3-  0.0
    960911 809  0.5+  0.1-    970214 950  1.4-  1.1-    990517 309  0.7-  0.1-
    960911 809  0.1+  0.1-    970214 950  1.0-  1.2-    990517 309  0.2+  0.7-
    960912 809  0.7+  0.2+    970223 897  0.4+  0.7-    990517 309  0.2-  0.6-
    960912 809  0.6+  0.2-    970223 897  0.2+  0.9-    990517 309  0.3+  0.4-
    960913 809 (2.8-  0.4-)   970224 360  0.3-  1.0-    990517 309  0.2-  0.4-
    960913 809  0.8+  0.5-    970224 360  0.4-  0.7-    990517 309  0.2-  0.3-
    960914 809 (2.7-  0.5-)   970302 057 (1.2+  2.4+)   990517 309  0.3-  0.2-
    960914 809  0.4+  0.3+    970305 897  0.1-  0.9-    990517 309  0.3-  0.3-
    960915 809 (2.5-  0.2-)   970305 897  0.5+  0.9-    990517 309  0.3-  0.1-
    960915 809  0.3+  0.2+    970307 360  0.7-  0.1-    990517 309  0.6-  0.0
    960916 809  0.9-  0.1-    970307 360  0.4-  0.1-    990517 309  0.8-  0.2-
    960916 809  0.5+  0.3-    970307 605  1.8+  1.0+    990517 309  0.1-  0.6-
    960917 809  0.7+  0.1-    970307 605 (2.2+  0.1-)   990517 309  0.3+  0.4-
    960919 696  0.7+  0.2-    970309 046  0.1-  0.4-    990517 309  0.4-  0.1+
    960919 696  0.8+  0.2-    970309 046  1.2-  0.6-    990517 309  0.2-  0.3-
    960919 696  0.6+  0.3-    970309 046  0.3-  0.7-    011209 309  1.0+  0.4-
    960919 711 (3.9-  1.1-)   970317 711  0.7+  0.6-    011209 309  0.3+  0.8-
    960919 711 (3.1-  0.9-)   970317 711  0.8+  0.5-    020623 413  0.1+  0.2+
    960920 711 (3.3-  0.5-)   970317 711  0.9+  0.4-    020623 413  0.2-  0.3+
    960920 711 (2.9-  0.7-)   970317 711  0.9+  0.7-    020623 413  0.0   0.2+
    960921 711 (3.4-  0.5-)   970322 605 (3.0+  0.4+)   020623 413  0.2-  0.2+
    960921 711 (3.5-  0.3-)   970322 605 (2.8+  0.4-)   020623 413  0.3-  0.4+
    960922 711 (4.3-  0.0 )   970322 605  1.3+  0.1+    020623 413  0.4-  0.6+
    960922 711 (3.1-  0.2-)   970423 897  0.5-  0.5-
    
